When you browse on this site, cookies collect data to enhance your experience and personalize the content and advertising you see.
Visit our Privacy Policy to learn more. By continuing to use the site, you agree to this use of cookies and data.
  • en Suisse
  • Liste des pays
  • À 7 jours
  • Température de l'eau
  • Carte météo
  • Widgets météo
  • user-avatar
    Se connecter

    Météo par heure à Solovevo

    Ce jour, 17 Août, Samedi

    Heure Température Précipitation Vent Pression Humidité
    00:00 +12°C° 0.1 mm 3 m/s 743 mmHg 81%
    01:00 +12°C° 0.1 mm 3 m/s 743 mmHg 81%
    02:00 +13°C° 0 mm 3 m/s 743 mmHg 82%
    03:00 +13°C° 0.1 mm 3 m/s 743 mmHg 84%
    04:00 +13°C° 0.1 mm 3 m/s 743 mmHg 86%
    05:00 +13°C° 0.1 mm 4 m/s 743 mmHg 89%
    06:00 +13°C° 0 mm 4 m/s 743 mmHg 87%
    07:00 +13°C° 0 mm 4 m/s 743 mmHg 84%
    08:00 +14°C° 0 mm 4 m/s 743 mmHg 82%
    09:00 +14°C° 0.3 mm 4 m/s 743 mmHg 84%
    10:00 +14°C° 0.3 mm 4 m/s 743 mmHg 86%
    11:00 +14°C° 0.3 mm 4 m/s 743 mmHg 89%
    12:00 +14°C° 0.4 mm 4 m/s 743 mmHg 89%
    13:00 +14°C° 0.4 mm 4 m/s 743 mmHg 90%
    14:00 +14°C° 0.4 mm 4 m/s 743 mmHg 91%
    15:00 +14°C° 0.7 mm 4 m/s 742 mmHg 92%
    16:00 +14°C° 0.7 mm 3 m/s 742 mmHg 93%
    17:00 +14°C° 0.7 mm 3 m/s 742 mmHg 94%
    18:00 +14°C° 0.9 mm 3 m/s 742 mmHg 94%
    19:00 +14°C° 0.9 mm 4 m/s 741 mmHg 95%
    20:00 +14°C° 0.9 mm 4 m/s 741 mmHg 96%
    21:00 +14°C° 1.1 mm 4 m/s 741 mmHg 96%
    22:00 +14°C° 1.1 mm 4 m/s 741 mmHg 97%
    23:00 +14°C° 1.1 mm 4 m/s 740 mmHg 97%

    Demain, 18 Août, Dimanche

    Heure Température Précipitation Vent Pression Humidité
    00:00 +14°C° 1.1 mm 4 m/s 740 mmHg 97%
    01:00 +13°C° 1.1 mm 3 m/s 740 mmHg 97%
    02:00 +13°C° 1.1 mm 3 m/s 740 mmHg 97%
    03:00 +13°C° 0.1 mm 3 m/s 740 mmHg 97%
    04:00 +13°C° 0.1 mm 3 m/s 740 mmHg 97%
    05:00 +12°C° 0.1 mm 3 m/s 740 mmHg 97%
    06:00 +13°C° 0 mm 3 m/s 740 mmHg 96%
    07:00 +13°C° 0 mm 3 m/s 740 mmHg 94%
    08:00 +14°C° 0 mm 3 m/s 740 mmHg 93%
    09:00 +16°C° 0 mm 3 m/s 741 mmHg 86%
    10:00 +18°C° 0 mm 3 m/s 741 mmHg 79%
    11:00 +20°C° 0 mm 3 m/s 741 mmHg 72%
    12:00 +21°C° 0 mm 3 m/s 741 mmHg 69%
    13:00 +21°C° 0 mm 3 m/s 742 mmHg 65%
    14:00 +22°C° 0 mm 3 m/s 742 mmHg 62%
    15:00 +22°C° 0.1 mm 3 m/s 742 mmHg 65%
    16:00 +23°C° 0.1 mm 2 m/s 742 mmHg 69%
    17:00 +21°C° 0.1 mm 2 m/s 743 mmHg 72%
    18:00 +19°C° 0 mm 2 m/s 743 mmHg 78%
    19:00 +17°C° 0 mm 2 m/s 743 mmHg 83%
    20:00 +16°C° 0 mm 2 m/s 743 mmHg 89%
    21:00 +15°C° 0 mm 1 m/s 743 mmHg 90%
    22:00 +14°C° 0 mm 1 m/s 744 mmHg 91%
    23:00 +14°C° 0 mm 1 m/s 744 mmHg 92%

    Après-demain, 19 Août, Lundi

    Heure Température Précipitation Vent Pression Humidité
    00:00 +13°C° 0 mm 1 m/s 744 mmHg 93%
    01:00 +13°C° 0 mm 1 m/s 744 mmHg 93%
    02:00 +13°C° 0 mm 1 m/s 745 mmHg 94%
    03:00 +13°C° 0 mm 1 m/s 745 mmHg 94%
    04:00 +13°C° 0 mm 1 m/s 745 mmHg 94%
    05:00 +13°C° 0 mm 2 m/s 745 mmHg 93%
    06:00 +14°C° 0 mm 2 m/s 745 mmHg 88%
    07:00 +16°C° 0 mm 2 m/s 746 mmHg 82%
    08:00 +18°C° 0 mm 3 m/s 746 mmHg 76%
    09:00 +20°C° 0 mm 3 m/s 746 mmHg 73%
    10:00 +21°C° 0 mm 3 m/s 746 mmHg 69%
    11:00 +23°C° 0 mm 4 m/s 746 mmHg 65%
    12:00 +23°C° 0 mm 4 m/s 747 mmHg 64%
    13:00 +25°C° 0 mm 4 m/s 747 mmHg 63%
    14:00 +26°C° 0 mm 4 m/s 747 mmHg 62%
    15:00 +25°C° 0 mm 3 m/s 747 mmHg 65%
    16:00 +25°C° 0 mm 3 m/s 747 mmHg 69%
    17:00 +25°C° 0 mm 3 m/s 747 mmHg 73%
    18:00 +22°C° 0 mm 3 m/s 747 mmHg 78%
    19:00 +21°C° 0 mm 3 m/s 747 mmHg 83%
    20:00 +19°C° 0 mm 3 m/s 747 mmHg 89%
    21:00 +19°C° 0 mm 3 m/s 747 mmHg 88%
    22:00 +18°C° 0 mm 3 m/s 747 mmHg 87%
    23:00 +18°C° 0 mm 3 m/s 747 mmHg 86%

    20 Août, Mardi

    Heure Température Précipitation Vent Pression Humidité
    00:00 +17°C° 0.1 mm 3 m/s 747 mmHg 88%
    01:00 +17°C° 0.1 mm 2 m/s 748 mmHg 90%
    02:00 +16°C° 0.1 mm 2 m/s 748 mmHg 92%
    03:00 +16°C° 0.1 mm 2 m/s 748 mmHg 91%
    04:00 +16°C° 0.1 mm 2 m/s 748 mmHg 90%
    05:00 +16°C° 0.1 mm 2 m/s 748 mmHg 90%
    06:00 +17°C° 0 mm 2 m/s 748 mmHg 87%
    07:00 +18°C° 0 mm 2 m/s 748 mmHg 84%
    08:00 +19°C° 0 mm 3 m/s 748 mmHg 81%
    09:00 +21°C° 0 mm 3 m/s 748 mmHg 77%
    10:00 +24°C° 0 mm 3 m/s 748 mmHg 73%
    11:00 +25°C° 0 mm 4 m/s 748 mmHg 69%
    12:00 +26°C° 0 mm 3 m/s 748 mmHg 68%
    13:00 +27°C° 0 mm 3 m/s 748 mmHg 67%
    14:00 +27°C° 0 mm 3 m/s 748 mmHg 66%
    15:00 +26°C° 0.2 mm 3 m/s 748 mmHg 72%
    16:00 +26°C° 0.2 mm 3 m/s 748 mmHg 77%
    17:00 +25°C° 0.2 mm 2 m/s 748 mmHg 82%
    18:00 +24°C° 0.3 mm 2 m/s 748 mmHg 86%
    19:00 +23°C° 0.3 mm 2 m/s 748 mmHg 89%
    20:00 +21°C° 0.3 mm 2 m/s 748 mmHg 93%
    21:00 +20°C° 0 mm 2 m/s 748 mmHg 94%
    22:00 +19°C° 0 mm 2 m/s 748 mmHg 95%
    23:00 +19°C° 0 mm 2 m/s 748 mmHg 95%

    21 Août, Mercredi

    Heure Température Précipitation Vent Pression Humidité
    00:00 +20°C° 0 mm 1 m/s 748 mmHg 96%
    01:00 +19°C° 0 mm 1 m/s 748 mmHg 96%
    02:00 +19°C° 0 mm 1 m/s 749 mmHg 96%
    03:00 +19°C° 0 mm 1 m/s 748 mmHg 96%
    04:00 +19°C° 0 mm 1 m/s 748 mmHg 96%
    05:00 +19°C° 0 mm 1 m/s 748 mmHg 97%
    06:00 +20°C° 0 mm 1 m/s 748 mmHg 94%
    07:00 +21°C° 0 mm 1 m/s 748 mmHg 91%
    08:00 +23°C° 0 mm 1 m/s 749 mmHg 88%
    09:00 +24°C° 0 mm 2 m/s 748 mmHg 81%
    10:00 +26°C° 0 mm 2 m/s 748 mmHg 74%
    11:00 +27°C° 0 mm 2 m/s 748 mmHg 67%
    12:00 +28°C° 0 mm 2 m/s 748 mmHg 66%
    13:00 +28°C° 0 mm 3 m/s 748 mmHg 65%
    14:00 +28°C° 0 mm 3 m/s 747 mmHg 63%
    15:00 +28°C° 0 mm 2 m/s 747 mmHg 67%
    16:00 +28°C° 0 mm 2 m/s 747 mmHg 70%
    17:00 +27°C° 0 mm 2 m/s 746 mmHg 73%
    18:00 +26°C° 0 mm 2 m/s 746 mmHg 78%
    19:00 +24°C° 0 mm 2 m/s 746 mmHg 83%
    20:00 +21°C° 0 mm 2 m/s 745 mmHg 88%
    21:00 +20°C° 0 mm 2 m/s 745 mmHg 89%
    22:00 +19°C° 0 mm 2 m/s 745 mmHg 90%
    23:00 +19°C° 0 mm 2 m/s 745 mmHg 92%

    22 Août, Jeudi

    Heure Température Précipitation Vent Pression Humidité
    00:00 +18°C° 0 mm 2 m/s 745 mmHg 91%
    01:00 +18°C° 0 mm 2 m/s 745 mmHg 90%
    02:00 +18°C° 0 mm 2 m/s 745 mmHg 89%
    03:00 +17°C° 0 mm 3 m/s 745 mmHg 91%
    04:00 +17°C° 0 mm 3 m/s 745 mmHg 92%
    05:00 +17°C° 0 mm 3 m/s 745 mmHg 93%
    06:00 +17°C° 0 mm 4 m/s 746 mmHg 90%
    07:00 +15°C° 0 mm 4 m/s 746 mmHg 87%
    08:00 +15°C° 0 mm 4 m/s 747 mmHg 84%
    09:00 +17°C° 0 mm 4 m/s 748 mmHg 79%
    10:00 +19°C° 0 mm 5 m/s 748 mmHg 73%
    11:00 +20°C° 0 mm 5 m/s 749 mmHg 68%
    12:00 +20°C° 0 mm 4 m/s 749 mmHg 66%
    13:00 +21°C° 0 mm 4 m/s 749 mmHg 64%
    14:00 +21°C° 0 mm 4 m/s 750 mmHg 62%
    15:00 +21°C° 0 mm 3 m/s 750 mmHg 64%
    16:00 +21°C° 0 mm 2 m/s 750 mmHg 66%
    17:00 +20°C° 0 mm 2 m/s 750 mmHg 68%
    18:00 +19°C° 0 mm 2 m/s 750 mmHg 73%
    19:00 +17°C° 0 mm 2 m/s 750 mmHg 78%
    20:00 +15°C° 0 mm 1 m/s 750 mmHg 83%
    21:00 +15°C° 0 mm 1 m/s 750 mmHg 84%
    22:00 +14°C° 0 mm 1 m/s 751 mmHg 85%
    23:00 +13°C° 0 mm 1 m/s 751 mmHg 86%
    Voir plus